Location: Maiden
(35.5760°N, 81.2120°W)
Time: 02:50:43
(UTC-04:00)

Cosmos 1743 Rocket - Pass Details

Date: 02 August 2020
Orbit: 605 x 631 km, 82.6° (Epoch: 11 August)

Event Time Altitude Azimuth Distance (km) Brightness Sun altitude
Exits shadow 22:11:15 10° 198° (SSW) 1,974 5.9 -19.0°
Maximum altitude 22:15:34 60° 278° (W) 713 4.0 -19.7°
Drops below altitude 10° 22:19:58 10° 359° (N) 2,004 6.7 -20.3°
Sets 22:22:15 0° 3° (N) 2,919 7.6 -20.7°
